When you browse on this site, cookies collect data to enhance your experience and personalize the content and advertising you see.
Visit our Privacy Policy to learn more. By continuing to use the site, you agree to this use of cookies and data.
  • In Hungary
  • List of Countries
  • For 7 days
  • Water Temperature
  • Weather Map
  • News
  • Weather Widgets
  • user-avatar
    Login

    Hourly Weather Drzewociny

    Today, 8 April, Wednesday

    Time Temperature Precipitation Wind Pressure Humidity
    00:00 +9°C° 0 mm 2 mps 757 mmHg 75%
    01:00 +9°C° 0 mm 2 mps 757 mmHg 80%
    02:00 +8°C° 0 mm 2 mps 757 mmHg 80%
    03:00 +7°C° 0 mm 2 mps 757 mmHg 80%
    04:00 +7°C° 0 mm 2 mps 757 mmHg 80%
    05:00 +8°C° 0 mm 2 mps 757 mmHg 75%
    06:00 +8°C° 0 mm 2 mps 757 mmHg 71%
    07:00 +9°C° 0 mm 2 mps 757 mmHg 67%
    08:00 +12°C° 0 mm 2 mps 757 mmHg 63%
    09:00 +13°C° 0 mm 2 mps 756 mmHg 58%
    10:00 +15°C° 0 mm 2 mps 756 mmHg 53%
    11:00 +16°C° 0 mm 2 mps 756 mmHg 51%
    12:00 +19°C° 0 mm 1 mps 755 mmHg 49%
    13:00 +20°C° 0 mm 1 mps 754 mmHg 47%
    14:00 +20°C° 0 mm 1 mps 754 mmHg 46%
    15:00 +20°C° 0 mm 1 mps 753 mmHg 44%
    16:00 +20°C° 0 mm 1 mps 753 mmHg 42%
    17:00 +19°C° 0 mm 1 mps 753 mmHg 46%
    18:00 +16°C° 0 mm 1 mps 752 mmHg 50%
    19:00 +15°C° 0 mm 1 mps 752 mmHg 54%
    20:00 +14°C° 0 mm 2 mps 752 mmHg 54%
    21:00 +13°C° 0 mm 2 mps 752 mmHg 54%
    22:00 +12°C° 0 mm 2 mps 752 mmHg 54%
    23:00 +10°C° 0 mm 2 mps 751 mmHg 52%

    Tomorrow, 9 April, Thursday

    Time Temperature Precipitation Wind Pressure Humidity
    00:00 +10°C° 0 mm 2 mps 751 mmHg 50%
    01:00 +9°C° 0 mm 2 mps 751 mmHg 47%
    02:00 +9°C° 0 mm 2 mps 750 mmHg 51%
    03:00 +8°C° 0 mm 2 mps 750 mmHg 54%
    04:00 +8°C° 0 mm 2 mps 750 mmHg 57%
    05:00 +8°C° 0 mm 3 mps 749 mmHg 57%
    06:00 +9°C° 0 mm 3 mps 749 mmHg 56%
    07:00 +10°C° 0 mm 3 mps 749 mmHg 56%
    08:00 +12°C° 0 mm 4 mps 749 mmHg 51%
    09:00 +14°C° 0 mm 4 mps 748 mmHg 46%
    10:00 +15°C° 0 mm 4 mps 748 mmHg 42%
    11:00 +16°C° 0 mm 5 mps 748 mmHg 40%
    12:00 +17°C° 0 mm 5 mps 748 mmHg 39%
    13:00 +19°C° 0 mm 5 mps 748 mmHg 37%
    14:00 +17°C° 0.1 mm 5 mps 748 mmHg 50%
    15:00 +15°C° 0.1 mm 5 mps 748 mmHg 62%
    16:00 +14°C° 0.1 mm 5 mps 748 mmHg 75%
    17:00 +13°C° 0.1 mm 5 mps 748 mmHg 74%
    18:00 +12°C° 0.1 mm 4 mps 748 mmHg 74%
    19:00 +11°C° 0.1 mm 4 mps 748 mmHg 73%
    20:00 +10°C° 0 mm 4 mps 749 mmHg 76%
    21:00 +9°C° 0 mm 3 mps 749 mmHg 78%
    22:00 +9°C° 0 mm 3 mps 750 mmHg 80%
    23:00 +8°C° 0 mm 3 mps 750 mmHg 77%

    Day after tomorrow, 10 April, Friday

    Time Temperature Precipitation Wind Pressure Humidity
    00:00 +7°C° 0 mm 3 mps 750 mmHg 74%
    01:00 +5°C° 0 mm 3 mps 751 mmHg 71%
    02:00 +4°C° 0 mm 3 mps 751 mmHg 73%
    03:00 +3°C° 0 mm 3 mps 751 mmHg 75%
    04:00 +3°C° 0 mm 2 mps 751 mmHg 77%
    05:00 +4°C° 0 mm 2 mps 751 mmHg 74%
    06:00 +4°C° 0 mm 2 mps 752 mmHg 72%
    07:00 +5°C° 0 mm 2 mps 752 mmHg 70%
    08:00 +7°C° 0 mm 2 mps 752 mmHg 63%
    09:00 +8°C° 0 mm 2 mps 752 mmHg 55%
    10:00 +10°C° 0 mm 2 mps 753 mmHg 48%
    11:00 +10°C° 0 mm 2 mps 752 mmHg 45%
    12:00 +12°C° 0 mm 2 mps 752 mmHg 42%
    13:00 +13°C° 0 mm 2 mps 752 mmHg 39%
    14:00 +13°C° 0 mm 2 mps 752 mmHg 39%
    15:00 +12°C° 0 mm 3 mps 751 mmHg 39%
    16:00 +12°C° 0 mm 3 mps 751 mmHg 38%
    17:00 +12°C° 0 mm 2 mps 751 mmHg 43%
    18:00 +9°C° 0 mm 2 mps 751 mmHg 48%
    19:00 +8°C° 0 mm 2 mps 751 mmHg 53%
    20:00 +8°C° 0 mm 1 mps 751 mmHg 55%
    21:00 +8°C° 0 mm 1 mps 751 mmHg 56%
    22:00 +7°C° 0 mm 1 mps 752 mmHg 58%
    23:00 +7°C° 0 mm 1 mps 751 mmHg 59%

    11 April, Saturday

    Time Temperature Precipitation Wind Pressure Humidity
    00:00 +5°C° 0 mm 0 mps 751 mmHg 61%
    01:00 +5°C° 0 mm 0 mps 751 mmHg 62%
    02:00 +6°C° 0 mm 1 mps 751 mmHg 64%
    03:00 +5°C° 0 mm 1 mps 752 mmHg 66%
    04:00 +5°C° 0 mm 1 mps 752 mmHg 68%
    05:00 +6°C° 0 mm 1 mps 752 mmHg 66%
    06:00 +7°C° 0 mm 1 mps 752 mmHg 64%
    07:00 +8°C° 0 mm 1 mps 752 mmHg 62%
    08:00 +9°C° 0 mm 1 mps 752 mmHg 57%
    09:00 +11°C° 0 mm 1 mps 752 mmHg 51%
    10:00 +13°C° 0 mm 1 mps 752 mmHg 46%
    11:00 +13°C° 0 mm 1 mps 752 mmHg 43%
    12:00 +14°C° 0 mm 1 mps 752 mmHg 40%
    13:00 +15°C° 0 mm 1 mps 752 mmHg 38%
    14:00 +15°C° 0 mm 1 mps 752 mmHg 37%
    15:00 +15°C° 0 mm 1 mps 751 mmHg 37%
    16:00 +15°C° 0 mm 1 mps 751 mmHg 37%
    17:00 +13°C° 0 mm 1 mps 751 mmHg 42%
    18:00 +12°C° 0 mm 2 mps 751 mmHg 46%
    19:00 +10°C° 0 mm 2 mps 751 mmHg 51%
    20:00 +9°C° 0 mm 2 mps 751 mmHg 54%
    21:00 +8°C° 0 mm 3 mps 751 mmHg 56%
    22:00 +8°C° 0 mm 3 mps 751 mmHg 58%
    23:00 +7°C° 0 mm 3 mps 751 mmHg 59%

    12 April, Sunday

    Time Temperature Precipitation Wind Pressure Humidity
    00:00 +7°C° 0 mm 3 mps 751 mmHg 59%
    01:00 +7°C° 0 mm 3 mps 751 mmHg 59%
    02:00 +5°C° 0 mm 3 mps 750 mmHg 59%
    03:00 +5°C° 0 mm 3 mps 750 mmHg 58%
    04:00 +4°C° 0 mm 3 mps 749 mmHg 57%
    05:00 +5°C° 0 mm 3 mps 749 mmHg 58%
    06:00 +6°C° 0 mm 4 mps 749 mmHg 59%
    07:00 +7°C° 0 mm 4 mps 749 mmHg 59%
    08:00 +10°C° 0 mm 4 mps 748 mmHg 54%
    09:00 +12°C° 0 mm 4 mps 748 mmHg 49%
    10:00 +14°C° 0 mm 4 mps 747 mmHg 44%
    11:00 +15°C° 0 mm 4 mps 747 mmHg 42%
    12:00 +17°C° 0 mm 4 mps 746 mmHg 40%
    13:00 +18°C° 0 mm 4 mps 746 mmHg 38%
    14:00 +19°C° 0 mm 4 mps 745 mmHg 39%
    15:00 +19°C° 0 mm 4 mps 744 mmHg 39%
    16:00 +19°C° 0 mm 4 mps 744 mmHg 39%
    17:00 +17°C° 0 mm 3 mps 743 mmHg 46%
    18:00 +16°C° 0 mm 3 mps 743 mmHg 52%
    19:00 +13°C° 0 mm 3 mps 742 mmHg 58%
    20:00 +13°C° 0 mm 3 mps 742 mmHg 61%
    21:00 +12°C° 0 mm 4 mps 742 mmHg 64%
    22:00 +12°C° 0 mm 5 mps 742 mmHg 67%
    23:00 +12°C° 0 mm 5 mps 741 mmHg 67%

    13 April, Monday

    Time Temperature Precipitation Wind Pressure Humidity
    00:00 +10°C° 0 mm 5 mps 741 mmHg 67%
    01:00 +10°C° 0 mm 5 mps 741 mmHg 68%
    02:00 +10°C° 0 mm 5 mps 740 mmHg 67%
    03:00 +10°C° 0 mm 5 mps 740 mmHg 66%
    04:00 +9°C° 0 mm 5 mps 739 mmHg 65%
    05:00 +10°C° 0 mm 6 mps 739 mmHg 64%
    06:00 +11°C° 0 mm 6 mps 739 mmHg 63%
    07:00 +11°C° 0 mm 7 mps 739 mmHg 62%
    08:00 +14°C° 0 mm 7 mps 739 mmHg 60%
    09:00 +15°C° 0 mm 7 mps 738 mmHg 58%
    10:00 +17°C° 0 mm 7 mps 738 mmHg 56%
    11:00 +19°C° 0 mm 6 mps 738 mmHg 54%
    12:00 +19°C° 0 mm 6 mps 738 mmHg 52%
    13:00 +20°C° 0 mm 6 mps 737 mmHg 50%
    14:00 +20°C° 0.2 mm 6 mps 737 mmHg 50%
    15:00 +20°C° 0.2 mm 6 mps 737 mmHg 51%
    16:00 +20°C° 0.2 mm 6 mps 736 mmHg 51%
    17:00 +17°C° 0.8 mm 5 mps 736 mmHg 59%
    18:00 +15°C° 0.8 mm 4 mps 736 mmHg 66%
    19:00 +13°C° 0.8 mm 3 mps 736 mmHg 73%
    20:00 +12°C° 0.4 mm 4 mps 736 mmHg 78%
    21:00 +12°C° 0.4 mm 4 mps 737 mmHg 82%
    22:00 +12°C° 0.4 mm 5 mps 737 mmHg 87%
    23:00 +10°C° 1.1 mm 5 mps 737 mmHg 87%
    Show more